Epoch 2020 Nov. 7.0 TT = JDT 2459160.5 T 2020 Nov. 18.04527 TT Rudenko q 2.9610147 (2000.0) P Q n 0.08754917 Peri. 40.39888 +0.97577742 -0.16219160 a 5.0230559 Node 328.01875 +0.04308733 +0.80041044 e 0.4105153 Incl. 16.09208 +0.21448054 +0.57709360 P 11.3 From 126 observations 2020 Aug. 22-Dec. 6, mean residual 0".4.
m1 = 14.0 + 5 logΔ + 10.0 log r